Preview of NWS' New Version of Forecast
This preview is not operational and should not be used for support decisions.

Regional Weather Roundup (RWR)

Issued by National Weather Service (NWS)

                            
000
ASUS42 KTBW 231118
RWRFL 
FLORIDA REGIONAL WEATHER ROUNDUP
NATIONAL WEATHER SERVICE TAMPA BAY RUSKIN FL
700 AM EDT FRI AUG 23 2019

NOTE: "FAIR" INDICATES FEW OR NO CLOUDS BELOW 12,000 FEET WITH NO
SIGNIFICANT WEATHER AND/OR OBSTRUCTIONS TO VISIBILITY.

FLZ001>010-012>015-112-114-115-231200-
PANHANDLE FLORIDA
  
CITY           SKY/WX    TMP DP  RH WIND       PRES   REMARKS
PENSACOLA      FAIR      79  79 100 NE3       30.00R                  
PENSACOLA NAS  MOCLDY    76  76 100 CALM      30.00R                  
MILTON NAS     MOCLDY    73  73 100 CALM      30.02                   
CRESTVIEW      FAIR      74  72  93 CALM      30.03R                  
DUKE FIELD     FAIR      74  74 100 CALM      30.01R                  
VALPARAISO     CLOUDY    78  76  94 NE3       30.00R                  
MARY ESTHER    TSTM      77  75  92 CALM      30.00                   
TRI COUNTY     CLOUDY    74  72  93 CALM      30.03R FOG              
PANAMA CITY    FAIR      76  74  93 CALM      30.00R                  
TYNDALL AFB    CLEAR     77  76  96 CALM      30.00R                  
APALACHICOLA   FAIR      76  74  93 NE5       30.00R                  

STATION/POSITION SKY/WX   TEMP    WIND        PRES    WAVE   SWELL
                          AIR SEA DIR/SP/G            HT/PER HT/PER
                          (F)     (DEG/KT/KT) (MB)    (FT/S) (FT/S)
30.1N   87.6W              83 86  160/  6/  8 1016.0R   2/ 7   2/ 7
29.2N   88.2W              84 86  190/  4/  6 1015.9R   2/ 5   2/ 5
28.8N   86.0W                 85   CALM  /  2 1015.7R   1/ 5   2/ 5
PANAMA CITY BEAC           81 86   40/  3/  4 1016.4R
TOWER C                    82      CALM  /  1 1016.4R
28.5N   84.5W              83      20/  6/  8 1016.4R   1

$$
FLZ011-016>038-118-127-128-134-139-239-231200-
NORTH FLORIDA
  
CITY           SKY/WX    TMP DP  RH WIND       PRES   REMARKS
MARIANNA       FAIR      73  73 100 CALM      30.02R                  
TALLAHASSEE    FAIR      76  76 100 CALM      30.02R                  
PERRY          FAIR      77  76  97 CALM      30.03R FOG              
LIVE OAK       CLEAR     73  75 100 CALM      30.03R                  
CROSS CITY     FAIR      76  75  96 CALM      30.02R                  
LAKE CITY      FAIR      73  72  94 CALM      30.03S                  
GAINESVILLE    FAIR      72  70  93 CALM      30.05R                  
WILLISTON      FAIR      71  71  99 CALM      30.02S                  
MAYPORT NAS    FAIR      79  76  90 W3        30.03R                  
JACKSONVILLE   MOCLDY    74  73  97 CALM      30.03R FOG              
JAX NAS        FAIR      79  75  87 CALM      30.03R                  
JAX CECIL      CLEAR     72  70  94 CALM      30.03S                  
FERNANDINA BEA FAIR      76  75  99 MISG      30.03S                  
ST AUGUSTINE   FAIR      75  74  96 CALM      30.04R                  
PALM COAST     CLEAR     73  73 100 CALM      30.02R                  

STATION/POSITION SKY/WX   TEMP    WIND        PRES    WAVE   SWELL
                          AIR SEA DIR/SP/G            HT/PER HT/PER
                          (F)     (DEG/KT/KT) (MB)    (FT/S) (FT/S)
SHELL POINT      NOT AVBL
KEATON BEACH               77      60/  3/  4 1016.5R
CEDAR KEY                  81     130/  6/  7 1016.1S
FERNANDINA                 84 85              1017.7R
30.7N   81.3W                 83                N/A     2/10
MAYPORT                    80 84  270/  2/  3 1017.3R
31.4N   80.9W              82 82  230/  4/  4 1017.3R   2/10   2/10
ST AUGUSTINE               78 81  330/  5/  5 1017.0R

$$
FLZ040-043>046-052-053-057-058-063-144-231200-
INTERIOR CENTRAL FLORIDA
  
CITY           SKY/WX    TMP DP  RH WIND       PRES   REMARKS
OCALA          FAIR      73  73 100 N3        30.03R                  
LEESBURG       FAIR      77  75  93 N3        30.03R                  
SANFORD        FAIR      78  75  90 NE5       30.01R                  
ORLANDO EXEC   FAIR      79  76  90 N5        30.01R                  
ORLANDO INTL   FAIR      77  75  93 N5        30.01R                  
KISSIMMEE      FAIR      79  76  90 N3        30.02R                  
WINTER HAVEN   FAIR      78  75  90 N5        30.02R                  
LAKELAND       CLEAR     75  73  94 CALM      30.01R                  
BARTOW         FAIR      79  75  89 N3        30.00R                  
SEBRING        FAIR      76  75  96 N6        29.99R                  
OKEECHOBEE     FAIR      73  73 100 CALM      29.98R                  

$$
FLZ041-047-054-059-064-141-147-231200-
EAST CENTRAL FLORIDA
  
CITY           SKY/WX    TMP DP  RH WIND       PRES   REMARKS
ORMOND BEACH   CLEAR     77  77 100 CALM      30.01                   
DAYTONA BEACH  FAIR      78  75  90 CALM      30.01R                  
DELAND         FAIR      75  73  94 CALM      30.01S                  
NEW SMYRNA BEA CLEAR     77  75  94 CALM      30.02                   
JFK SPACE CTR  FAIR      76  56  48 CALM      29.99R                  
TITUSVILLE     PTCLDY    84  77  79 E5        30.00                   
CAPE CANAVERAL FAIR      79  79  99 CALM      29.98R                  
PATRICK AFB    FAIR      82  80  94 E10       29.98R                  
MELBOURNE      FAIR      83  75  77 NE7       29.98R                  
VERO BEACH     FAIR      80  76  87 E6        29.98R                  
FT PIERCE      FAIR      81  74  79 E7        29.97R                  
STUART         PTCLDY    82  73  74 E9        29.97R                  

STATION/POSITION SKY/WX   TEMP    WIND        PRES    WAVE   SWELL
                          AIR SEA DIR/SP/G            HT/PER HT/PER
                          (F)     (DEG/KT/KT) (MB)    (FT/S) (FT/S)
28.5N   80.2W              83 83   70/ 10/ 12 1015.5R   3/ 7   2/ 7
28.9N   78.5W              84 86  110/ 14/ 16 1016.4R   3/ 6   2/ 6
TRIDENT PIER               80 84   60/  6/  8 1016.8R
28.4N   80.5W                 82                N/A     3/ 5
27.5N   80.2W                 83                N/A     3/ 5

$$
FLZ050-056-061-142-242-148-248-149-249-151-251-155-255-
160-260-231200-
WEST CENTRAL FLORIDA
  
CITY           SKY/WX    TMP DP  RH WIND       PRES   REMARKS
CRYSTAL RIVER  FAIR      73  73 100 CALM      30.02R                  
INVERNESS      FAIR      72  72 100 CALM      30.03S FOG              
BROOKSVILLE    FAIR      73  72  96 CALM      30.03R                  
CLEARWATER AIR FAIR      77  73  88 NE3       30.01R                  
ST PETE CLEARW FAIR      80  75  84 NE7       30.00R                  
TAMPA INTL     FAIR      78  75  90 NE5       30.01R                  
PLANT CITY     FAIR      75  75 100 CALM      30.03R                  
MACDILL AFB    FAIR      76  74  93 NE5       30.00R                  
PETER O KNIGHT CLOUDY   N/A N/A N/A NE5       30.01R                  
ST PETERSBURG  FAIR      82  76  81 NE9       29.98R                  
SARASOTA       FAIR      77  75  93 NE5       29.98R                  
VENICE         FAIR      77  77 100 NE6       30.00R                  

STATION/POSITION SKY/WX   TEMP    WIND        PRES    WAVE   SWELL
                          AIR SEA DIR/SP/G            HT/PER HT/PER
                          (F)     (DEG/KT/KT) (MB)    (FT/S) (FT/S)
27.3N   84.2W                 85                N/A     2/ 7
CLEARWATER BEACH           80 88   60/  4/  5 1016.0R
MIDDLE TAMPA BAY                   90/  6/  7 1015.9R
VENICE                     77 86   50/  6/  8 1015.4R

$$
FLZ066-069-070-075>078-162-262-165-265-231200-
SOUTHWEST FLORIDA AND KEYS
  
CITY           SKY/WX    TMP DP  RH WIND       PRES   REMARKS
PUNTA GORDA    FAIR      76  76 100 NE5       30.00R                  
FT MYERS       FAIR      77  75  93 NE6       29.96S                  
SOUTHWEST INTL FAIR      77  75  93 N6        29.97R                  
NAPLES         FAIR      79  76  90 N5        29.96R                  
MARCO ISLAND   FAIR     N/A N/A N/A N5          N/A                   
IMMOKALEE        N/A    N/A N/A N/A MISG        N/A                   
MARATHON       MOCLDY    83  76  79 N7        29.94R                  
KEY WEST NAS   FAIR      84  75  74 CALM      29.94R                  
KEY WEST INTL  FAIR      83  76  79 CALM      29.95R                  

STATION/POSITION SKY/WX   TEMP    WIND        PRES    WAVE   SWELL
                          AIR SEA DIR/SP/G            HT/PER HT/PER
                          (F)     (DEG/KT/KT) (MB)    (FT/S) (FT/S)
NAPLES                     78 86              1014.5R
26.0N   85.6W              84 85   50/  4/  6 1015.4R   1/ 7   2/ 7
DRY TORTUGAS               85      40/  4/  6 1014.4R
SAND KEY                   84      50/  4/  6 1013.0R
SOMBRERO KEY               83     360/  6/  8 1014.1R
LONG KEY                   82                 1012.8R

$$
FLZ067-068-071>074-168-172>174-231200-
SOUTHEAST FLORIDA 
  
CITY           SKY/WX    TMP DP  RH WIND       PRES   REMARKS
W PALM BEACH   LGT RAIN  82  75  79 E17       29.95R                  
BOCA RATON     MOCLDY    81  75  83 E6        29.94                   
FT LAUDER-EXEC MOCLDY    80  76  87 N3        29.93R                  
FT LAUDERDALE  MOCLDY    81  75  82 E5        29.93R                  
POMPANO BEACH  FAIR      82  75  79 E8        29.94R                  
PEMBROKE PINES FAIR      79  75  87 N5        29.95R                  
OPA LOCKA      FAIR      80  76  87 N5        29.94R                  
MIAMI          FAIR      81  74  79 N3        29.93R                  
WEST KENDALL   FAIR      77  75  93 NW5       29.93R                  
HOMESTEAD      FAIR      78  76  92 N5        29.92R                  

STATION/POSITION SKY/WX   TEMP    WIND        PRES    WAVE   SWELL
                          AIR SEA DIR/SP/G            HT/PER HT/PER
                          (F)     (DEG/KT/KT) (MB)    (FT/S) (FT/S)
VIRGINIA KEY               82 88   40/  4/  7 1012.8R
LAKE WORTH                 82 85  100/ 16/ 18 1015.1R
FOWEY ROCKS                80 86   90/  7/  8 1013.6R
SETTLEMENT POINT           80     100/ 11/ 12 1014.9R

$$